User: anonymous   Login
Location: Unspecified
(0.0000°N, 0.0000°E)
Time: 09:26:53
(UTC+00:00)
Language:

A-11 Canister half - Orbit

View from above orbital plane
View from above orbital plane
View from above satellite
View from above satellite

Ground track
Ground track

The orbit data is extracted from the following two-line orbital elements,

1 00053U 60009E   17054.03640506 -.00000086  00000-0  00000+0 0  9998
2 00053  47.2775  31.5406 0096393 104.4185 256.7324 12.17193659521139
Epoch (UTC): 23 February 2017 00:52:25
Eccentricity: 0.0096393
inclination: 47.2775°
perigee height: 1528 km
apogee height: 1682 km
right ascension of ascending node: 31.5406°
argument of perigee: 104.4185°
revolutions per day: 12.17193659
mean anomaly at epoch: 256.7324°
orbit number at epoch: 52113

The dashed part of the orbit path shows where the satellite is in the earth's shadow,  

DLR